Location: Villingen
(48.0639°N, 8.4609°E)
Time: 15:36:40
(UTC+02:00)

ISS - Pass Details

Date: 30 March 2017
Orbit: 400 x 409 km, 51.6° (Epoch: 26 April)

Event Time Altitude Azimuth Distance (km) Brightness Sun altitude
Rises 22:21:13 0° 264° (W) 2,316 0.7 -23.5°
Reaches altitude 10° 22:23:20 10° 269° (W) 1,460 -0.3 -23.8°
Enters shadow 22:25:31 35° 292° (WNW) 670 -2.3 -24.1°
